Kodiak, AK

3:57 PM AKST on December 15, 2017 (GMT -0900)
Kodiak

Weather History for PADQ - December, 2012

Change the Weather History Date:

Monday, December 3, 2012

  Actual Average Record
Temperature  
Mean Temperature 22 °F 32 °F  
Max Temperature 24 °F 37 °F 48 °F (1947)
Min Temperature 20 °F 27 °F 0 °F (1971)
Degree Days  
Heating Degree Days 43 33  
Month to date heating degree days 116 99  
Since 1 July heating degree days 3041 2894  
Cooling Degree Days 0 0  
Month to date cooling degree days 0 0  
Year to date cooling degree days 0 1  
Moisture  
Dew Point 11 °F    
Average Humidity 0    
Maximum Humidity 0    
Minimum Humidity 0    
Precipitation  
Precipitation T in 0.28 in 1.99 in (2008)
Month to date precipitation T 0.82  
Year to date precipitation 52.30 70.09  
Snow  
Snow T in 0.40 in 6.70 in (1985)
Month to date snowfall T 1.3  
Since 1 July snowfall 7.9 8.8  
Since 1 September snowfall 8.8  
Snow Depth T in    
Sea Level Pressure  
Sea Level Pressure 29.40 in    
Wind  
Wind Speed 18 mph (NW)    
Max Wind Speed 28 mph    
Max Gust Speed 39 mph    
Visibility 10 miles    
Events Snow    
T = Trace of Precipitation, MM = Missing Value Source: NWS Daily Summary

Daily Weather History Graph

Daily Weather History Graph

Search for Another Location

Airport or City:

Trip Planner

Search our weather history database for the weather conditions in past years. The results will help you decide how hot, cold, wet, or windy it might be!

Date:

Astronomy

Dec. 03, 2012 Rise Set
Actual Time 9:32 AM AKST 4:27 PM AKST
Civil Twilight 8:43 AM AKST 5:16 PM AKST
Nautical Twilight 7:52 AM AKST 6:07 PM AKST
Astronomical Twilight 7:04 AM AKST 6:54 PM AKST
Moon 10:05 PM AKST (12/3) 12:25 PM AKST (12/3)
Length of Visible Light 8h 33m
Length of Day
6h 54m
Waning Gibbous, 77% of the Moon is Illuminated
Dec 3
Waning Gibbous
Dec 6
Last Quarter
Dec 12
New
Dec 19
First Quarter
Dec 28
Full

Hourly Weather History & Observations

Time (AKST) Temp. Windchill Dew Point Humidity Pressure Visibility Wind Dir Wind Speed Gust Speed Precip Events Conditions
12:53 AM 21.9 °F 8.7 °F 10.9 °F 63% 29.30 in 10.0 mi WNW 15.0 mph 19.6 mph N/A   Overcast
1:53 AM 21.9 °F 8.2 °F 12.9 °F 68% 29.31 in 5.0 mi WNW 16.1 mph - 0.00 in Snow Light Snow
3:53 AM 21.9 °F 6.9 °F 10.0 °F 60% 29.32 in 10.0 mi NW 19.6 mph 26.5 mph 0.00 in   Overcast
4:18 AM 21.2 °F 7.8 °F 10.4 °F 63% 29.32 in 9.0 mi NW 15.0 mph 29.9 mph 0.00 in Snow Light Snow
4:53 AM 21.9 °F 7.8 °F 10.9 °F 63% 29.32 in 9.0 mi NW 17.3 mph 26.5 mph 0.00 in   Overcast
5:05 AM 23.0 °F 8.3 °F 10.4 °F 59% 29.32 in 10.0 mi NW 19.6 mph 29.9 mph N/A   Overcast
5:53 AM 21.9 °F 5.8 °F 10.9 °F 63% 29.33 in 10.0 mi NW 23.0 mph 32.2 mph N/A   Mostly Cloudy
6:53 AM 21.9 °F 6.5 °F 10.9 °F 63% 29.34 in 10.0 mi NW 20.7 mph 33.4 mph N/A   Overcast
7:16 AM 21.2 °F 5.6 °F 10.4 °F 63% 29.35 in 10.0 mi WNW 20.7 mph 31.1 mph N/A   Mostly Cloudy
7:53 AM 21.9 °F 8.2 °F 10.9 °F 63% 29.37 in 10.0 mi NW 16.1 mph 29.9 mph N/A   Mostly Cloudy
8:53 AM 21.9 °F 5.1 °F 10.9 °F 63% 29.40 in 10.0 mi WNW 25.3 mph 32.2 mph N/A   Scattered Clouds
9:53 AM 21.9 °F 6.5 °F 10.9 °F 63% 29.40 in 10.0 mi NW 20.7 mph 29.9 mph N/A   Partly Cloudy
10:53 AM 21.9 °F 7.8 °F 10.0 °F 60% 29.44 in 10.0 mi NW 17.3 mph 29.9 mph N/A   Mostly Cloudy
11:53 AM 21.9 °F 6.9 °F 10.0 °F 60% 29.44 in 10.0 mi NW 19.6 mph 32.2 mph N/A   Scattered Clouds
12:53 PM 23.0 °F 9.6 °F 10.9 °F 60% 29.45 in 10.0 mi NW 16.1 mph 28.8 mph N/A   Scattered Clouds
1:53 PM 23.0 °F 11.7 °F 10.9 °F 60% 29.46 in 10.0 mi WNW 11.5 mph 26.5 mph N/A   Mostly Cloudy
2:53 PM 21.9 °F 8.2 °F 10.0 °F 60% 29.46 in 10.0 mi WNW 16.1 mph 28.8 mph N/A   Mostly Cloudy
3:53 PM 21.9 °F 7.3 °F 10.0 °F 60% 29.47 in 10.0 mi WNW 18.4 mph 28.8 mph N/A   Scattered Clouds
4:53 PM 21.9 °F 9.8 °F 10.9 °F 63% 29.47 in 10.0 mi WNW 12.7 mph 31.1 mph N/A   Scattered Clouds
5:53 PM 21.0 °F 5.0 °F 10.9 °F 65% 29.47 in 10.0 mi WNW 21.9 mph 31.1 mph N/A   Scattered Clouds
6:53 PM 21.0 °F 5.0 °F 10.0 °F 63% 29.46 in 10.0 mi WNW 21.9 mph 31.1 mph N/A   Scattered Clouds
7:53 PM 21.0 °F 5.0 °F 10.9 °F 65% 29.45 in 10.0 mi NW 21.9 mph 34.5 mph N/A   Scattered Clouds
8:53 PM 21.0 °F 7.1 °F 10.9 °F 65% 29.45 in 10.0 mi NW 16.1 mph 31.1 mph N/A   Scattered Clouds
9:53 PM 21.0 °F 4.6 °F 10.0 °F 63% 29.44 in 10.0 mi NW 23.0 mph 34.5 mph N/A   Scattered Clouds
10:53 PM 19.9 °F 5.2 °F 9.0 °F 62% 29.43 in 10.0 mi WNW 17.3 mph 28.8 mph N/A   Scattered Clouds
11:53 PM 19.9 °F 5.7 °F 10.0 °F 65% 29.42 in 10.0 mi NW 16.1 mph 24.2 mph N/A   Scattered Clouds